Floresville, TX (78114)

9:54 AM CDT on August 21, 2017 (GMT -0500)
Belaire Subdivision | | Change Station
Active Advisory: Special Statement

Elev 400 ft 29.12 °N, 98.16 °W | Updated 22 seconds ago

Mostly Cloudy
Mostly Cloudy
87.6 °F
Feels Like 100 °F
N
0.0
Wind Variable Wind from NE

Today
High -- | Low -- °F
--% Chance of Precip.
Yesterday
High -- | Low -- °F
Precip. -- in
Pressure 30.07 in
Visibility 10.0 miles
Clouds Scattered Clouds 1600 ft
Mostly Cloudy 2400 ft
Heat Index 100 °F
Dew Point 78 °F
Humidity 72%
Rainfall 0.00 in
Snow Depth Not available.
7:04 AM 8:06 PM
Waning Crescent, 0% visible
SPECI KSSF 211445Z VRB03KT 10SM SCT016 BKN024 29/24 A3007 RMK AO2 T02890239 $
Pressure 30.07 in
Visibility 10.0 miles
Clouds Scattered Clouds 1600 ft
Mostly Cloudy 2400 ft
Heat Index 100 °F
Dew Point 78 °F
Humidity 72%
Rainfall 0.00 in
Snow Depth Not available.
7:04 AM 8:06 PM
Waning Crescent, 0% visible
SPECI KSSF 211445Z VRB03KT 10SM SCT016 BKN024 29/24 A3007 RMK AO2 T02890239 $

Get Your Daily Forecast Email!

Thanks for signing up!

Be on the lookout for a verification email in your inbox.

You'll start receiving severe weather alerts in your inbox..

×

10-Day Weather Forecast

Almanac

Astronomy

Aug. 21, 2017 Rise Set
Actual Time
Civil Twilight
Nautical Twilight
Astronomical Twilight
Moon
Length of Visible Light
Length of Day
Tomorrow will be .
, % of the Moon is Illuminated

Today's Extremes

State Highs State Lows

Community

WunderPhotos

Category 6

Welcome to Category 6. This is the collective home for Weather Underground's featured writeups by Dr. Jeff Masters (right), Bob Henson (left), Chris Burt, and other regular contributors.

Nearby

Air Quality

  Air Quality AQ Index Pollutant
Not available.

Snow Depth

Station Depth Elevation

Earthquake Activity

City Distance Mag. Time & Date
Minimum magnitude displayed is 2.5.

Coastal Water Temperatures

Place Temperature

Stations

Nearby Weather Stations

Station Location Temp. Windchill Dew Point Humidity Wind Precip. Elev Updated Type
                   

Watches & Warnings

Special Statement
Issued: 5:02 AM CDT Aug. 21, 2017 – National Weather Service

... Elevated heat indices expected this afternoon...

Afternoon heat index values of 102 to 107 degrees are expected
again this afternoon for a large portion of south central Texas.
The highest heat index values are expected to occur between 1 PM
and 7 PM. Prolonged exposure to the heat and exertion outdoors
without proper hydration and other precautionary actions may
result in heat related illness.

Please continue to take extra precautions if you work or spend
time outside in the afternoon and early evening. Stay hydrated and
take breaks in the shade or an air conditioned building. Limit
strenuous outdoor activities and check up on the elderly, sick,
and those without air conditioning. Never leave children or pets
unattended in a vehicle, even for a couple minutes, and remember
to look before you lock!